Location: Les Salelles
(44.4192°N, 4.1044°E)
Time: 20:01:43
(UTC+00:00)

CZ-4 R/B - Pass Details

Date: 20 January 2021
Orbit: 580 x 589 km, 97.7° (Epoch: 04 March)

Event Time Altitude Azimuth Distance (km) Brightness Sun altitude
Rises 18:03:18 0° 167° (SSE) 2,793 7.9 -15.3°
Reaches altitude 10° 18:05:27 10° 168° (SSE) 1,899 7.1 -15.7°
Maximum altitude 18:09:34 84° 257° (WSW) 595 4.4 -16.4°
Drops below altitude 10° 18:13:45 10° 346° (NNW) 1,921 7.1 -17.1°
Sets 18:15:55 0° 347° (NNW) 2,828 8.0 -17.5°
